,,,PA_Meas_PMT16A,,PR_Meas_QMR101_102,,RH_Meas_QMH101,,SR_Meas_QMS101,,TA_Meas_QMH101,,GenWind,,GenWind,
date,time,status,PA,status,PR,status,RH,status,SR,status,TA,status,DirAvg,status,SpdAvg,
2012-07-30, 07:17:04,INVALID - VALUE NOT AVAILABLE,0,INVALID - VALUE NOT AVAILABLE,0,INVALID - VALUE NOT AVAILABLE,0,INVALID - VALUE NOT AVAILABLE,0,INVALID - VALUE NOT AVAILABLE,0,INVALID,360,INVALID,0,
2012-07-30, 07:18:04,VALID,1005.31,VALID,0,VALID,92.3323,VALID,119.411,VALID,23.1179,VALID,86,VALID,0.386328,
2012-07-30, 07:19:04,VALID,1005.27,VALID,0,VALID,92.3857,VALID,128.295,VALID,23.1162,VALID,95,VALID,0.878516,
2012-07-30, 07:20:04,VALID,1005.25,VALID,0,VALID,92.2637,VALID,135.468,VALID,23.1551,VALID,102,VALID,1.10938,
2012-07-30, 07:21:04,VALID,1005.23,VALID,0.5,VALID,92.4849,VALID,140.684,VALID,23.194,VALID,67,VALID,0.698828,
2012-07-30, 07:22:04,VALID,1005.26,VALID,0,VALID,92.546,VALID,144.678,VALID,23.2524,VALID,37,VALID,0.316406,
2012-07-30, 07:23:04,VALID,1005.29,VALID,0,VALID,92.7138,VALID,148.346,VALID,23.332,VALID,79,VALID,0.776563,
2012-07-30, 07:24:04,VALID,1005.26,VALID,0,VALID,92.6375,VALID,151.77,VALID,23.3514,VALID,88,VALID,0.5625,
2012-07-30, 07:25:04,VALID,1005.25,VALID,0,VALID,92.3857,VALID,154.704,VALID,23.3302,VALID,73,VALID,0.929688,
2012-07-30, 07:26:04,VALID,1005.26,VALID,0,VALID,92.668,VALID,157.312,VALID,23.3691,VALID,78,VALID,0,
2012-07-30, 07:27:04,VALID,1005.26,VALID,0,VALID,92.9655,VALID,159.839,VALID,23.4682,VALID,78,VALID,0,
2012-07-30, 07:28:04,VALID,1005.25,VALID,0,VALID,92.2866,VALID,162.773,VALID,23.447,VALID,27,VALID,0.751562,
2012-07-30, 07:29:04,VALID,1005.27,VALID,0,VALID,92.2561,VALID,165.056,VALID,23.4275,VALID,360,VALID,0.0195313,
2012-07-30, 07:30:04,VALID,1005.26,VALID,0,VALID,92.5231,VALID,166.93,VALID,23.5266,VALID,36,VALID,0.000390625,
2012-07-30, 07:31:04,VALID,1005.24,VALID,0,VALID,92.5841,VALID,169.213,VALID,23.5637,VALID,5,VALID,0,
2012-07-30, 07:32:04,VALID,1005.28,VALID,0,VALID,92.6222,VALID,171.25,VALID,23.6434,VALID,360,VALID,0.576172,
2012-07-30, 07:33:04,VALID,1005.3,VALID,0,VALID,91.5542,VALID,173.695,VALID,23.5637,VALID,5,VALID,0.817187,
2012-07-30, 07:34:04,VALID,1005.33,VALID,0,VALID,92.3323,VALID,175.57,VALID,23.6628,VALID,5,VALID,0.671875,
2012-07-30, 07:35:04,VALID,1005.33,VALID,0,VALID,91.6152,VALID,176.548,VALID,23.6823,VALID,358,VALID,0.952734,
2012-07-30, 07:36:04,VALID,1005.33,VALID,0,VALID,91.5008,VALID,177.689,VALID,23.7017,VALID,23,VALID,0.611328,
2012-07-30, 07:37:04,VALID,1005.34,VALID,0,VALID,91.8288,VALID,179.564,VALID,23.7212,VALID,23,VALID,0.139844,
2012-07-30, 07:38:04,VALID,1005.33,VALID,0,VALID,91.8899,VALID,182.254,VALID,23.7778,VALID,6,VALID,0.689062,
2012-07-30, 07:39:04,VALID,1005.32,VALID,0,VALID,91.5771,VALID,186.003,VALID,23.7973,VALID,6,VALID,0.233594,
2012-07-30, 07:40:04,VALID,1005.34,VALID,0,VALID,90.9897,VALID,189.997,VALID,23.8185,VALID,354,VALID,1.04648,
2012-07-30, 07:41:04,VALID,1005.29,VALID,0,VALID,91.2567,VALID,196.436,VALID,23.8556,VALID,336,VALID,0.305078,
2012-07-30, 07:42:04,VALID,1005.3,VALID,0,VALID,90.9668,VALID,204.506,VALID,23.9159,VALID,336,VALID,0,
2012-07-30, 07:43:04,VALID,1005.28,VALID,0,VALID,91.6305,VALID,215.673,VALID,23.9937,VALID,336,VALID,0,
2012-07-30, 07:44:04,VALID,1005.3,VALID,0,VALID,91.0431,VALID,237.109,VALID,24.0521,VALID,336,VALID,0.0746094,
2012-07-30, 07:45:04,VALID,1005.32,VALID,0,VALID,90.7455,VALID,231.893,VALID,24.0697,VALID,336,VALID,0.354688,
2012-07-30, 07:46:04,VALID,1005.33,VALID,0,VALID,90.8676,VALID,230.507,VALID,24.1494,VALID,337,VALID,0.462891,
2012-07-30, 07:47:04,VALID,1005.33,VALID,0,VALID,90.0284,VALID,232.789,VALID,24.1671,VALID,337,VALID,0.552344,
2012-07-30, 07:48:04,VALID,1005.34,VALID,0,VALID,89.6699,VALID,234.012,VALID,24.2078,VALID,345,VALID,0.667188,
2012-07-30, 07:49:04,VALID,1005.35,VALID,0,VALID,89.4257,VALID,234.827,VALID,24.2468,VALID,1,VALID,0.717188,
2012-07-30, 07:50:04,VALID,1005.35,VALID,0,VALID,90.036,VALID,234.338,VALID,24.3246,VALID,350,VALID,0.429297,
2012-07-30, 07:51:04,VALID,1005.37,VALID,0,VALID,89.502,VALID,232.871,VALID,24.3441,VALID,350,VALID,0.426172,
2012-07-30, 07:52:04,VALID,1005.35,VALID,0,VALID,87.6787,VALID,232.219,VALID,24.3246,VALID,357,VALID,0.358594,
2012-07-30, 07:53:04,VALID,1005.38,VALID,0,VALID,89.2426,VALID,231.322,VALID,24.422,VALID,357,VALID,0.00351562,
2012-07-30, 07:54:04,VALID,1005.35,VALID,0,VALID,89.2045,VALID,230.752,VALID,24.4804,VALID,357,VALID,0,
2012-07-30, 07:55:04,VALID,1005.34,VALID,0,VALID,87.8923,VALID,230.833,VALID,24.4804,VALID,357,VALID,0.220703,
2012-07-30, 07:56:04,VALID,1005.33,VALID,0,VALID,88.4645,VALID,232.626,VALID,24.5388,VALID,357,VALID,0,
2012-07-30, 07:57:04,VALID,1005.3,VALID,0,VALID,87.16,VALID,237.109,VALID,24.5972,VALID,357,VALID,0,
2012-07-30, 07:58:04,VALID,1005.34,VALID,0,VALID,87.5719,VALID,244.934,VALID,24.5972,VALID,357,VALID,0,
2012-07-30, 07:59:04,VALID,1005.34,VALID,0,VALID,86.4962,VALID,255.367,VALID,24.675,VALID,357,VALID,0,
2012-07-30, 08:00:04,VALID,1005.35,VALID,0,VALID,86.9158,VALID,261.073,VALID,24.714,VALID,357,VALID,0.334766,
2012-07-30, 08:01:04,VALID,1005.37,VALID,0,VALID,87.6406,VALID,258.791,VALID,24.7724,VALID,355,VALID,0.628125,
2012-07-30, 08:02:04,VALID,1005.35,VALID,0,VALID,88.1822,VALID,258.302,VALID,24.8503,VALID,350,VALID,0.748047,
2012-07-30, 08:03:04,VALID,1005.38,VALID,0,VALID,88.3653,VALID,259.198,VALID,24.8503,VALID,346,VALID,0.633594,
2012-07-30, 08:04:04,VALID,1005.36,VALID,0,VALID,87.6863,VALID,260.176,VALID,24.8697,VALID,352,VALID,0.686719,
2012-07-30, 08:05:04,VALID,1005.36,VALID,0,VALID,88.9604,VALID,261.399,VALID,24.9476,VALID,352,VALID,0.410547,
2012-07-30, 08:06:04,VALID,1005.33,VALID,0,VALID,88.7925,VALID,262.296,VALID,24.9866,VALID,327,VALID,0.75,
2012-07-30, 08:07:04,VALID,1005.34,VALID,0,VALID,89.2732,VALID,261.399,VALID,25.045,VALID,317,VALID,0.404297,
2012-07-30, 08:08:04,VALID,1005.36,VALID,0,VALID,88.8688,VALID,257.324,VALID,25.1229,VALID,306,VALID,0.258203,
2012-07-30, 08:09:04,VALID,1005.34,VALID,0,VALID,89.4944,VALID,253.004,VALID,25.1813,VALID,310,VALID,0,
2012-07-30, 08:10:04,VALID,1005.37,VALID,0,VALID,88.0296,VALID,248.928,VALID,25.2202,VALID,345,VALID,0.982813,
2012-07-30, 08:11:04,VALID,1005.34,VALID,0,VALID,87.8084,VALID,245.831,VALID,25.2221,VALID,349,VALID,0.927344,
2012-07-30, 08:12:04,VALID,1005.37,VALID,0,VALID,88.167,VALID,243.712,VALID,25.2416,VALID,350,VALID,0.312109,
2012-07-30, 08:13:04,VALID,1005.36,VALID,0,VALID,87.9381,VALID,242.978,VALID,25.2416,VALID,357,VALID,0.528125,
2012-07-30, 08:14:04,VALID,1005.36,VALID,0,VALID,88.6171,VALID,247.869,VALID,25.2806,VALID,360,VALID,0.570313,
2012-07-30, 08:15:04,VALID,1005.37,VALID,0,VALID,88.2738,VALID,257.976,VALID,25.339,VALID,342,VALID,0.719141,
2012-07-30, 08:16:04,VALID,1005.35,VALID,0,VALID,87.6635,VALID,280.717,VALID,25.3195,VALID,7,VALID,0.912109,
2012-07-30, 08:17:04,VALID,1005.37,VALID,0,VALID,87.8389,VALID,288.379,VALID,25.3,VALID,350,VALID,0.636719,
2012-07-30, 08:18:04,VALID,1005.36,VALID,0,VALID,87.9076,VALID,269.55,VALID,25.337,VALID,360,VALID,0.715625,
2012-07-30, 08:19:04,VALID,1005.35,VALID,0,VALID,86.954,VALID,275.745,VALID,25.3779,VALID,343,VALID,0.708984,
2012-07-30, 08:20:04,VALID,1005.37,VALID,0,VALID,86.8167,VALID,309.815,VALID,25.4363,VALID,346,VALID,0.512891,
2012-07-30, 08:21:04,VALID,1005.34,VALID,0,VALID,86.481,VALID,387.819,VALID,25.4948,VALID,345,VALID,0.464453,
2012-07-30, 08:22:04,VALID,1005.34,VALID,0,VALID,85.8936,VALID,370.784,VALID,25.5727,VALID,345,VALID,0.374609,
2012-07-30, 08:23:04,VALID,1005.35,VALID,0,VALID,84.8179,VALID,358.639,VALID,25.672,VALID,345,VALID,0.285547,
2012-07-30, 08:24:04,VALID,1005.3,VALID,0,VALID,81.6519,VALID,305.088,VALID,25.7674,VALID,345,VALID,0.515625,
2012-07-30, 08:25:04,VALID,1005.32,VALID,0,VALID,84.6195,VALID,320.901,VALID,25.8843,VALID,345,VALID,0.2375,
2012-07-30, 08:26:04,VALID,1005.32,VALID,0,VALID,83.0556,VALID,326.769,VALID,25.9817,VALID,322,VALID,0.16875,
2012-07-30, 08:27:04,VALID,1005.31,VALID,0,VALID,80.8585,VALID,413.739,VALID,26.1395,VALID,322,VALID,0.363672,
2012-07-30, 08:28:04,VALID,1005.29,VALID,0,VALID,81.4917,VALID,432.405,VALID,26.2759,VALID,322,VALID,0.148438,
2012-07-30, 08:29:04,VALID,1005.3,VALID,0,VALID,80.2558,VALID,465.334,VALID,26.4492,VALID,351,VALID,0.462109,
2012-07-30, 08:30:04,VALID,1005.32,VALID,0,VALID,78.4478,VALID,424.254,VALID,26.6635,VALID,12,VALID,0.428125,
2012-07-30, 08:31:04,VALID,1005.27,VALID,0,VALID,76.6779,VALID,545.132,VALID,26.8583,VALID,14,VALID,0.321875,
2012-07-30, 08:32:04,VALID,1005.3,VALID,0,VALID,78.8903,VALID,508.127,VALID,27.09,VALID,62,VALID,0.310547,
2012-07-30, 08:33:04,VALID,1005.31,VALID,0,VALID,77.4408,VALID,518.071,VALID,27.3844,VALID,78,VALID,0.447266,
2012-07-30, 08:34:04,VALID,1005.3,VALID,0,VALID,74.2824,VALID,514.81,VALID,27.4213,VALID,92,VALID,0.589453,
2012-07-30, 08:35:04,VALID,1005.32,VALID,0,VALID,71.7115,VALID,403.632,VALID,27.5187,VALID,32,VALID,0.532422,
2012-07-30, 08:36:04,VALID,1005.32,VALID,0,VALID,72.4438,VALID,467.861,VALID,27.6398,VALID,62,VALID,0.782422,
2012-07-30, 08:37:04,VALID,1005.3,VALID,0,VALID,73.6416,VALID,581.892,VALID,27.5987,VALID,92,VALID,0.605078,
2012-07-30, 08:38:04,VALID,1005.35,VALID,0,VALID,73.8552,VALID,346.087,VALID,27.6572,VALID,50,VALID,0.466797,
2012-07-30, 08:39:04,VALID,1005.36,VALID,0,VALID,73.5272,VALID,340.626,VALID,27.7546,VALID,21,VALID,0.816406,
2012-07-30, 08:40:04,VALID,1005.37,VALID,0,VALID,71.2995,VALID,521.413,VALID,27.7157,VALID,11,VALID,1.14063,
2012-07-30, 08:41:04,VALID,1005.36,VALID,0,VALID,69.9492,VALID,467.046,VALID,27.6767,VALID,10,VALID,0.545313,
2012-07-30, 08:42:04,VALID,1005.37,VALID,0,VALID,70.9486,VALID,456.939,VALID,27.6767,VALID,22,VALID,0.726563,
2012-07-30, 08:43:04,VALID,1005.34,VALID,0,VALID,69.6288,VALID,458.243,VALID,27.6377,VALID,23,VALID,0.762891,
2012-07-30, 08:44:04,VALID,1005.38,VALID,0,VALID,71.8488,VALID,462.645,VALID,27.6593,VALID,20,VALID,0.394141,
2012-07-30, 08:45:04,VALID,1005.39,VALID,0,VALID,72.9931,VALID,272.892,VALID,27.8347,VALID,22,VALID,0.289063,
2012-07-30, 08:46:04,VALID,1005.38,VALID,0,VALID,72.6041,VALID,212.575,VALID,27.93,VALID,100,VALID,0.91875,
2012-07-30, 08:47:04,VALID,1005.41,VALID,0,VALID,69.5449,VALID,230.1,VALID,27.7546,VALID,93,VALID,0.801172,
2012-07-30, 08:48:04,VALID,1005.44,VALID,0,VALID,69.4457,VALID,312.75,VALID,27.6203,VALID,93,VALID,0.43125,
2012-07-30, 08:49:04,VALID,1005.43,VALID,0,VALID,69.3236,VALID,266.942,VALID,27.5987,VALID,72,VALID,0.464063,
2012-07-30, 08:50:04,VALID,1005.44,VALID,0,VALID,68.9269,VALID,402.573,VALID,27.6788,VALID,72,VALID,0.176563,
2012-07-30, 08:51:04,VALID,1005.46,VALID,0,VALID,69.0414,VALID,400.372,VALID,27.7762,VALID,62,VALID,0.460938,
2012-07-30, 08:52:04,VALID,1005.44,VALID,0,VALID,72.1845,VALID,379.342,VALID,27.8542,VALID,15,VALID,0.690234,
2012-07-30, 08:53:04,VALID,1005.47,VALID,0,VALID,69.6974,VALID,380.728,VALID,27.8953,VALID,355,VALID,1.06719,
2012-07-30, 08:54:04,VALID,1005.46,VALID,0,VALID,71.1317,VALID,531.194,VALID,27.8737,VALID,9,VALID,0.261719,
2012-07-30, 08:55:04,VALID,1005.44,VALID,0,VALID,71.8259,VALID,376.082,VALID,27.9906,VALID,9,VALID,0.247266,
2012-07-30, 08:56:04,VALID,1005.51,VALID,0,VALID,68.6447,VALID,414.717,VALID,28.1054,VALID,299,VALID,0.801562,
2012-07-30, 08:57:04,VALID,1005.48,VALID,0,VALID,69.2931,VALID,544.398,VALID,28.0275,VALID,294,VALID,0.307813,
2012-07-30, 08:58:04,VALID,1005.48,VALID,0,VALID,69.3084,VALID,543.42,VALID,28.0275,VALID,305,VALID,0.498828,
2012-07-30, 08:59:04,VALID,1005.48,VALID,0,VALID,69.6822,VALID,543.338,VALID,28.1855,VALID,300,VALID,0.350391,
2012-07-30, 09:00:04,VALID,1005.46,VALID,0,VALID,68.5226,VALID,575.697,VALID,28.1444,VALID,249,VALID,0.450781,
2012-07-30, 09:01:04,VALID,1005.48,VALID,0,VALID,69.995,VALID,514.892,VALID,28.205,VALID,249,VALID,0.474609,
2012-07-30, 09:02:04,VALID,1005.43,VALID,0,VALID,70.7197,VALID,454.412,VALID,28.2614,VALID,249,VALID,0.317187,
2012-07-30, 09:03:04,VALID,1005.47,VALID,0,VALID,71.0478,VALID,417.733,VALID,28.2809,VALID,198,VALID,0.776563,
2012-07-30, 09:04:04,VALID,1005.46,VALID,0,VALID,69.9339,VALID,422.135,VALID,28.205,VALID,158,VALID,0.576953,
2012-07-30, 09:05:04,VALID,1005.45,VALID,0,VALID,68.5836,VALID,411.457,VALID,28.0881,VALID,145,VALID,1.11055,
2012-07-30, 09:06:04,VALID,1005.47,VALID,0,VALID,69.8729,VALID,336.061,VALID,27.93,VALID,128,VALID,0.666016,
2012-07-30, 09:07:04,VALID,1005.42,VALID,0,VALID,67.2715,VALID,315.358,VALID,28.0101,VALID,94,VALID,0.276172,
2012-07-30, 09:08:04,VALID,1005.42,VALID,0,VALID,67.1113,VALID,308.919,VALID,28.0881,VALID,95,VALID,0.541797,
2012-07-30, 09:09:04,VALID,1005.42,VALID,0,VALID,68.4387,VALID,278.76,VALID,28.0686,VALID,170,VALID,0.653906,
2012-07-30, 09:10:04,VALID,1005.42,VALID,0,VALID,68.2251,VALID,273.055,VALID,28.0101,VALID,186,VALID,0.605859,
2012-07-30, 09:11:04,VALID,1005.41,VALID,0,VALID,68.9803,VALID,314.869,VALID,27.8716,VALID,186,VALID,0.253125,
2012-07-30, 09:12:04,VALID,1005.37,VALID,0,VALID,68.6447,VALID,453.679,VALID,27.8152,VALID,176,VALID,1.20273,
2012-07-30, 09:13:04,VALID,1005.4,VALID,0,VALID,73.7408,VALID,698.613,VALID,27.8131,VALID,169,VALID,0.696484,
2012-07-30, 09:14:04,VALID,1005.37,VALID,0,VALID,70.3535,VALID,782.567,VALID,27.8911,VALID,163,VALID,1.28242,
2012-07-30, 09:15:04,VALID,1005.36,VALID,0,VALID,70.201,VALID,547.006,VALID,28.0101,VALID,171,VALID,1.20586,
2012-07-30, 09:16:04,VALID,1005.36,VALID,0,VALID,72.9397,VALID,715.811,VALID,28.0491,VALID,157,VALID,0.973437,
2012-07-30, 09:17:04,VALID,1005.33,VALID,0,VALID,68.515,VALID,747.355,VALID,28.1487,VALID,199,VALID,1.4832,
2012-07-30, 09:18:04,VALID,1005.31,VALID,0,VALID,70.2925,VALID,723.636,VALID,28.1466,VALID,189,VALID,0.903125,
2012-07-30, 09:19:04,VALID,1005.32,VALID,0,VALID,71.3911,VALID,731.869,VALID,28.283,VALID,180,VALID,1.09492,
2012-07-30, 09:20:04,VALID,1005.29,VALID,0,VALID,71.9861,VALID,716.626,VALID,28.4194,VALID,187,VALID,0.903906,
2012-07-30, 09:21:04,VALID,1005.31,VALID,0,VALID,66.7527,VALID,719.479,VALID,28.5581,VALID,156,VALID,1.27461,
2012-07-30, 09:22:04,VALID,1005.3,VALID,0,VALID,69.6212,VALID,730.32,VALID,28.5169,VALID,134,VALID,0.705859,
2012-07-30, 09:23:04,VALID,1005.29,VALID,0,VALID,69.1634,VALID,726.652,VALID,28.6729,VALID,204,VALID,2.08945,
2012-07-30, 09:24:04,VALID,1005.29,VALID,0,VALID,72.2302,VALID,724.777,VALID,28.6902,VALID,183,VALID,1.64258,
2012-07-30, 09:25:04,VALID,1005.26,VALID,0,VALID,68.9422,VALID,727.712,VALID,28.6512,VALID,215,VALID,1.55313,
2012-07-30, 09:26:04,VALID,1005.24,VALID,0,VALID,69.1711,VALID,732.032,VALID,28.7119,VALID,162,VALID,1.77266,
2012-07-30, 09:27:04,VALID,1005.23,VALID,0,VALID,69.3313,VALID,732.847,VALID,28.6729,VALID,131,VALID,1.87812,
2012-07-30, 09:28:04,VALID,1005.22,VALID,0,VALID,68.2327,VALID,734.721,VALID,28.7898,VALID,207,VALID,0.780469,
2012-07-30, 09:29:04,VALID,1005.18,VALID,0,VALID,69.9568,VALID,737.004,VALID,28.8656,VALID,185,VALID,1.56211,
2012-07-30, 09:30:04,VALID,1005.17,VALID,0,VALID,66.6612,VALID,742.709,VALID,28.8656,VALID,166,VALID,0.772656,
2012-07-30, 09:31:04,VALID,1005.15,VALID,0,VALID,64.8302,VALID,753.876,VALID,28.7704,VALID,153,VALID,2.2293,
2012-07-30, 09:32:04,VALID,1005.18,VALID,0,VALID,65.4711,VALID,691.929,VALID,28.7119,VALID,135,VALID,3.24453,
2012-07-30, 09:33:04,VALID,1005.16,VALID,0,VALID,63.991,VALID,635.851,VALID,28.5581,VALID,161,VALID,2.15313,
2012-07-30, 09:34:04,VALID,1005.18,VALID,0,VALID,68.2556,VALID,755.995,VALID,28.5169,VALID,164,VALID,2.35586,
2012-07-30, 09:35:04,VALID,1005.17,VALID,0,VALID,65.9669,VALID,769.281,VALID,28.4974,VALID,177,VALID,2.0957,
2012-07-30, 09:36:04,VALID,1005.16,VALID,0,VALID,66.7908,VALID,768.874,VALID,28.5191,VALID,159,VALID,2.59844,
2012-07-30, 09:37:04,VALID,1005.14,VALID,0,VALID,67.7063,VALID,773.031,VALID,28.4,VALID,178,VALID,2.65977,
2012-07-30, 09:38:04,VALID,1005.15,VALID,0,VALID,71.4674,VALID,780.04,VALID,28.3805,VALID,168,VALID,1.58789,
2012-07-30, 09:39:04,VALID,1005.15,VALID,0,VALID,69.6212,VALID,793.245,VALID,28.4974,VALID,170,VALID,1.32578,
2012-07-30, 09:40:04,VALID,1005.16,VALID,0,VALID,67.1341,VALID,603.247,VALID,28.5581,VALID,155,VALID,2.31289,
2012-07-30, 09:41:04,VALID,1005.12,VALID,0,VALID,68.8049,VALID,820.224,VALID,28.4779,VALID,137,VALID,0.741797,
2012-07-30, 09:42:04,VALID,1005.15,VALID,0,VALID,64.0979,VALID,791.533,VALID,28.5971,VALID,135,VALID,2.44961,
2012-07-30, 09:43:04,VALID,1005.12,VALID,0,VALID,66.5925,VALID,390.183,VALID,28.3631,VALID,118,VALID,1.54727,
2012-07-30, 09:44:04,VALID,1005.13,VALID,0,VALID,68.9498,VALID,314.217,VALID,28.4021,VALID,153,VALID,2.81797,
2012-07-30, 09:45:04,VALID,1005.09,VALID,0,VALID,68.988,VALID,711.817,VALID,28.2635,VALID,194,VALID,1.38555,
2012-07-30, 09:46:04,VALID,1005.1,VALID,0,VALID,66.9511,VALID,742.22,VALID,28.1877,VALID,179,VALID,1.72656,
2012-07-30, 09:47:04,VALID,1005.07,VALID,0,VALID,67.8284,VALID,623.951,VALID,28.0491,VALID,183,VALID,1.33516,
2012-07-30, 09:48:04,VALID,1005.08,VALID,0,VALID,67.6148,VALID,436.969,VALID,28.1487,VALID,189,VALID,1.5207,
2012-07-30, 09:49:04,VALID,1005.07,VALID,0,VALID,70.262,VALID,424.498,VALID,28.1097,VALID,210,VALID,1.03789,
2012-07-30, 09:50:04,VALID,1005.08,VALID,0,VALID,68.0954,VALID,362.389,VALID,28.0101,VALID,185,VALID,2.10039,
2012-07-30, 09:51:04,VALID,1005.05,VALID,0,VALID,68.843,VALID,459.792,VALID,27.8542,VALID,166,VALID,2.07969,
2012-07-30, 09:52:04,VALID,1005.04,VALID,0,VALID,71.8793,VALID,500.057,VALID,27.7372,VALID,168,VALID,2.29961,
2012-07-30, 09:53:04,VALID,1005.03,VALID,0,VALID,70.2544,VALID,544.561,VALID,27.6983,VALID,161,VALID,2.3875,
2012-07-30, 09:54:04,VALID,1004.99,VALID,0,VALID,69.9111,VALID,932.625,VALID,27.6593,VALID,186,VALID,1.83945,
2012-07-30, 09:55:04,VALID,1005.01,VALID,0,VALID,70.1857,VALID,584.5,VALID,27.7372,VALID,189,VALID,2.44375,
2012-07-30, 09:56:04,VALID,1004.95,VALID,0,VALID,69.6441,VALID,672.041,VALID,27.7351,VALID,193,VALID,2.32773,
2012-07-30, 09:57:04,VALID,1004.97,VALID,0,VALID,71.3834,VALID,426.536,VALID,27.7957,VALID,197,VALID,1.88477,
2012-07-30, 09:58:04,VALID,1004.94,VALID,0,VALID,70.6587,VALID,538.692,VALID,27.7978,VALID,141,VALID,2.03437,
2012-07-30, 09:59:04,VALID,1004.94,VALID,0,VALID,69.7127,VALID,490.521,VALID,27.7762,VALID,147,VALID,1.68555,
2012-07-30, 10:00:04,VALID,1004.92,VALID,0,VALID,71.1622,VALID,919.91,VALID,27.7588,VALID,152,VALID,1.49258,
2012-07-30, 10:01:04,VALID,1004.9,VALID,0,VALID,71.5742,VALID,838.564,VALID,27.8347,VALID,108,VALID,1.74258,
2012-07-30, 10:02:04,VALID,1004.88,VALID,0,VALID,71.8183,VALID,587.272,VALID,27.9733,VALID,190,VALID,1.64375,
2012-07-30, 10:03:04,VALID,1004.91,VALID,0,VALID,72.6117,VALID,838.808,VALID,28.1487,VALID,185,VALID,2.02891,
2012-07-30, 10:04:04,VALID,1004.92,VALID,0,VALID,70.0713,VALID,811.829,VALID,28.1877,VALID,171,VALID,2.20156,
2012-07-30, 10:05:04,VALID,1004.91,VALID,0,VALID,69.0871,VALID,807.183,VALID,28.2245,VALID,153,VALID,1.99141,
2012-07-30, 10:06:04,VALID,1004.95,VALID,0,VALID,67.897,VALID,787.213,VALID,28.0902,VALID,165,VALID,2.58789,
2012-07-30, 10:07:04,VALID,1004.93,VALID,0,VALID,70.7655,VALID,778.41,VALID,27.9711,VALID,180,VALID,1.75469,
2012-07-30, 10:08:04,VALID,1004.89,VALID,0,VALID,69.3236,VALID,724.207,VALID,27.8347,VALID,142,VALID,2.35703,
2012-07-30, 10:09:04,VALID,1004.88,VALID,0,VALID,73.8323,VALID,772.867,VALID,27.9516,VALID,167,VALID,1.21133,
2012-07-30, 10:10:04,VALID,1004.89,VALID,0,VALID,69.2855,VALID,772.867,VALID,27.969,VALID,140,VALID,1.83164,
2012-07-30, 10:11:04,VALID,1004.86,VALID,0,VALID,73.1686,VALID,774.335,VALID,28.1466,VALID,185,VALID,0.592188,
2012-07-30, 10:12:04,VALID,1004.82,VALID,0,VALID,69.7814,VALID,778.981,VALID,28.283,VALID,152,VALID,2.11602,
2012-07-30, 10:13:04,VALID,1004.83,VALID,0,VALID,69.2855,VALID,784.523,VALID,28.166,VALID,151,VALID,1.77969,
2012-07-30, 10:14:04,VALID,1004.82,VALID,0,VALID,70.2849,VALID,788.354,VALID,28.2072,VALID,134,VALID,2.04609,
2012-07-30, 10:15:04,VALID,1004.79,VALID,0,VALID,70.9181,VALID,795.364,VALID,28.1076,VALID,167,VALID,2.20039,
2012-07-30, 10:16:04,VALID,1004.79,VALID,0,VALID,70.3535,VALID,825.93,VALID,28.0881,VALID,132,VALID,2.24102,
2012-07-30, 10:17:04,VALID,1004.79,VALID,0,VALID,70.6358,VALID,793.652,VALID,28.1444,VALID,136,VALID,1.56367,
2012-07-30, 10:18:04,VALID,1004.81,VALID,0,VALID,72.3904,VALID,712.714,VALID,28.1855,VALID,130,VALID,2.25781,
2012-07-30, 10:19:04,VALID,1004.79,VALID,0,VALID,67.9504,VALID,423.031,VALID,28.2224,VALID,144,VALID,2.0043,
2012-07-30, 10:20:04,VALID,1004.75,VALID,0,VALID,69.5906,VALID,544.561,VALID,28.0275,VALID,142,VALID,1.99336,
2012-07-30, 10:21:04,VALID,1004.74,VALID,0,VALID,69.4304,VALID,589.065,VALID,27.9321,VALID,145,VALID,1.22461,
2012-07-30, 10:22:04,VALID,1004.71,VALID,0,VALID,70.468,VALID,609.035,VALID,27.8521,VALID,133,VALID,1.36484,
2012-07-30, 10:23:04,VALID,1004.7,VALID,0,VALID,68.9193,VALID,902.222,VALID,27.8131,VALID,149,VALID,2.4375,
2012-07-30, 10:24:04,VALID,1004.64,VALID,0,VALID,68.9651,VALID,688.913,VALID,27.8737,VALID,147,VALID,2.16992,
2012-07-30, 10:25:04,VALID,1004.67,VALID,0,VALID,72.0929,VALID,867.662,VALID,27.8932,VALID,135,VALID,2.10664,
2012-07-30, 10:26:04,VALID,1004.65,VALID,0,VALID,70.1399,VALID,713.774,VALID,27.9906,VALID,79,VALID,1.1082,
2012-07-30, 10:27:04,VALID,1004.62,VALID,0,VALID,71.3377,VALID,824.952,VALID,28.0275,VALID,117,VALID,1.12227,
2012-07-30, 10:28:04,VALID,1004.61,VALID,0,VALID,70.5748,VALID,719.479,VALID,28.2245,VALID,147,VALID,2.1832,
2012-07-30, 10:29:04,VALID,1004.57,VALID,0,VALID,70.4069,VALID,849.649,VALID,28.4173,VALID,173,VALID,1.20234,
2012-07-30, 10:30:04,VALID,1004.54,VALID,0,VALID,67.836,VALID,853.643,VALID,28.4173,VALID,139,VALID,1.93047,
2012-07-30, 10:31:04,VALID,1004.53,VALID,0,VALID,67.9199,VALID,788.517,VALID,28.3588,VALID,169,VALID,2.26328,
2012-07-30, 10:32:04,VALID,1004.48,VALID,0,VALID,70.8036,VALID,807.59,VALID,28.4758,VALID,184,VALID,0.519141,
2012-07-30, 10:33:04,VALID,1004.47,VALID,0,VALID,68.4997,VALID,793.408,VALID,28.6902,VALID,179,VALID,1.67109,
2012-07-30, 10:34:04,VALID,1004.47,VALID,0,VALID,67.9581,VALID,860.734,VALID,28.6317,VALID,131,VALID,2.10547,
2012-07-30, 10:35:04,VALID,1004.45,VALID,0,VALID,66.7603,VALID,853.317,VALID,28.6122,VALID,164,VALID,2.47891,
2012-07-30, 10:36:04,VALID,1004.45,VALID,0,VALID,69.7737,VALID,839.297,VALID,28.4953,VALID,166,VALID,1.28945,
2012-07-30, 10:37:04,VALID,1004.42,VALID,0,VALID,68.8049,VALID,831.391,VALID,28.5169,VALID,125,VALID,1.59805,
2012-07-30, 10:38:04,VALID,1004.42,VALID,0,VALID,67.6224,VALID,825.196,VALID,28.4953,VALID,111,VALID,1.47383,
2012-07-30, 10:39:04,VALID,1004.39,VALID,0,VALID,67.5156,VALID,821.773,VALID,28.5342,VALID,137,VALID,1.65117,
2012-07-30, 10:40:04,VALID,1004.34,VALID,0,VALID,65.3795,VALID,818.92,VALID,28.5537,VALID,151,VALID,2.09258,
2012-07-30, 10:41:04,VALID,1004.29,VALID,0,VALID,72.0395,VALID,817.779,VALID,28.7097,VALID,135,VALID,1.19062,
2012-07-30, 10:42:04,VALID,1004.26,VALID,0,VALID,65.555,VALID,816.067,VALID,28.8851,VALID,148,VALID,2.05977,
2012-07-30, 10:43:04,VALID,1004.26,VALID,0,VALID,64.8531,VALID,815.415,VALID,28.6707,VALID,136,VALID,3.16016,
2012-07-30, 10:44:04,VALID,1004.23,VALID,0,VALID,65.9517,VALID,817.534,VALID,28.4368,VALID,107,VALID,1.28242,
2012-07-30, 10:45:04,VALID,1004.2,VALID,0,VALID,68.843,VALID,816.149,VALID,28.5148,VALID,174,VALID,0.835547,
2012-07-30, 10:46:04,VALID,1004.23,VALID,0,VALID,67.9047,VALID,816.312,VALID,28.6317,VALID,123,VALID,1.72383,
2012-07-30, 10:47:04,VALID,1004.21,VALID,0,VALID,69.5678,VALID,817.616,VALID,28.9046,VALID,155,VALID,1.95195,
2012-07-30, 10:48:04,VALID,1004.21,VALID,0,VALID,69.3465,VALID,818.513,VALID,28.7682,VALID,170,VALID,1.97383,
2012-07-30, 10:49:04,VALID,1004.19,VALID,0,VALID,67.508,VALID,819.409,VALID,28.8072,VALID,179,VALID,2.11992,
2012-07-30, 10:50:04,VALID,1004.19,VALID,0,VALID,68.2022,VALID,820.143,VALID,28.7898,VALID,150,VALID,2.48555,